< < Back
Terminal Aerodrome Forecast


Current Version              Previous Versions:   1  2  3  4  5  6  7  8  9  

Terminal Aerodrome Forecast

813
FTUS42 KCAE 250200 AAA
TAFAGS
TAF AMD
KAGS 250243Z 2503/2524 14007KT P6SM SCT150
     FM250800 VRB03KT P6SM SCT008 BKN015
     FM251400 23012KT P6SM SCT015 BKN040
     FM251600 26017G24KT P6SM SCT050 SCT100
     FM252300 24008KT P6SM SCT250=



Latest METAR

718
SAUS70 KWBC 250700 RRF
MTRAGS
METAR KAGS 250653Z AUTO 00000KT 10SM CLR 16/14 A2992 RMK AO2 SLP131
T01560139


USA.gov is the U.S. government's official web portal to all federal, state and local government web resources and services.